Weather in Kalmar

Sweden     56°41′07″N   16°20′28″E
temp.,
°C
wind,
m/s
gust,
m/s
humid.,
%
clouds,
%
prec.,
mm/h
press.,
hPa
HPBL,
m
2 august, mon
mon223:00+13sw24798 0.0 100370
02:00+12wsw258266 0.0 1003109
05:00+10wsw37945 0.0 1003152
08:00+15wsw486778 0.0 1002827
11:00+17wsw366174 0.0 10021061
14:00+17wsw467449 1.4 10021046
17:00+20nw47447 0.6 10021926
20:00+18nnw3756100 0.6 1004431
3 august, tue
tue323:00+15nw486852 0.0 1006475
02:00+9nw38830 0.0 1008161
05:00+9w25795 0.0 100994
08:00+15wnw24564 0.0 1010426
11:00+21wsw343537 0.0 10102260
14:00+19ssw344990 0.0 1010985
17:00+18ssw376585 0.4 1010614
20:00+15wsw368829 2.8 1011167
4 august, wed
wed423:00+12w399222 0.1 1012213
02:00+10w249333 0.1 101372
05:00+9w2593100 0.0 101479
08:00+15w257627 0.0 1014228
11:00+20wsw344422 0.0 10141759
14:00+23ssw343551 0.0 10132435
17:00+20s4751100 0.0 1013477
20:00+18ssw485990 0.0 1014464
5 august, thu
thu523:00+15sw377463 0.0 1015222
02:00+12wsw23910 0.0 101544
05:00+11w11880 0.0 101512
08:00+17e11640 0.0 1014238
11:00+21ese34495 0.0 10141214
14:00+22ese4543100 0.0 10131464
17:00+21e444990 0.0 10121058
20:00+17ne3670100 0.0 1011345
6 august, fri
fri623:00+17ne4977100 0.0 1010418
02:00+17ene3980100 0.2 1007348
05:00+16ne31096100 2.9 1005514
08:00+16nne41093100 5.3 1003496
11:00+17ene41191100 1.2 1001605
14:00+16nne61295100 5.6 1000881
17:00+16n71396100 5.3 998980
20:00+15nnw61297100 14.2 998820